RH
66 67 69 64 63 67 70 75 65 58 50 60 58 34 32 30 38 41 44 47 52 61 88 73 69 61 44
64 66 60 82 73 80 86 72 68 47 47 53 42 35 28 41 51 47 51 45 54 68 79 71 69 45 36
58 58 65 87 78 74 76 68 65 36 51 48 41 34 37 56 52 67 61 52 65 75 64 75 60 41 25
68 55 74 56 52 80 57 56 42 38 55 58 37 42 55 64 73 68 67 75 69 64 71 63 44 28 21
55 66 50 80 69 59 40 59 50 50 46 43 40 61 73 78 76 64 82 74 73 63 69 52 39 23 20
54 51 97 51 48 43 70 45 42 49 46 51 69 78 92 81 79 74 83 80 65 74 58 41 30 20 21
45 57 58 45 36 84 71 51 58 42 59 76 82 96 85 75 65 76 90 70 70 58 52 46 24 22 21
70 56 74 76 100 95 85 58 42 86 97 93 87 85 83 62 100 84 88 63 68 56 47 28 23 22 23
58 83 100 100 97 82 60 43 79 100 100 80 93 83 67 86 87 88 72 74 53 58 37 22 22 22 25
100 100 99 90 87 58 45 100 96 99 100 100 94 93 84 67 80 80 85 65 64 48 23 20 20 25 26
73 77 72 82 74 62 100 100 100 100 100 93 83 81 77 60 71 71 65 64 53 29 23 20 19 24 26
78 95 100 75 74 100 100 100 100 100 92 92 87 66 58 74 72 67 67 58 48 27 23 20 23 29 31
100 85 72 85 100 100 100 99 92 91 95 87 75 57 54 54 64 75 65 66 30 29 26 25 28 34 34
100 83 100 100 100 100 96 96 93 94 78 69 63 63 65 61 66 60 58 41 32 28 32 34 28 29 23
100 100 100 100 100 98 100 94 84 76 62 64 71 64 64 62 65 60 41 28 28 28 35 37 29 25 21
100 100 100 100 100 95 89 76 73 67 61 77 78 68 75 62 63 63 28 28 28 33 41 38 32 25 21
100 100 100 100 83 83 83 69 64 82 83 79 82 67 63 67 59 32 30 28 30 41 45 41 31 26 20
Wind_Speed
49 49 50 50 52 53 53 58 61 67 73 75 77 85 92 93 95 98 98 105 112 118 117 127 132 138 137
50 51 51 53 58 57 59 62 65 74 80 78 82 90 97 98 104 105 105 110 117 121 125 131 138 142 130
52 53 54 55 59 60 62 65 72 79 82 81 89 97 99 104 110 111 110 115 121 125 132 134 142 138 124
54 53 54 58 60 61 66 71 77 85 84 86 92 97 103 110 114 116 113 120 124 133 135 142 144 128 110
55 53 56 59 62 66 72 75 84 86 88 92 96 102 108 112 118 118 118 125 129 137 139 148 136 121 106
52 55 57 64 69 74 74 81 86 91 93 92 100 108 112 116 120 118 123 129 137 136 144 142 130 113 106
54 59 64 69 74 75 80 87 90 95 90 97 105 109 116 122 124 125 128 137 140 141 150 134 120 111 103
58 64 69 71 75 81 87 93 96 90 94 103 108 114 120 124 123 129 134 141 143 147 143 126 111 107 103
61 65 70 74 81 87 94 91 91 94 98 111 114 119 123 126 128 134 141 142 148 151 136 116 109 104 103
65 66 75 83 90 96 98 89 98 100 107 114 121 121 127 131 130 138 143 147 151 144 123 111 106 102 101
78 81 85 91 95 98 94 99 102 108 116 121 123 126 126 132 138 143 144 150 151 131 116 112 104 103 99
82 87 91 93 93 89 98 103 110 115 118 120 124 129 135 135 140 144 144 150 140 122 118 109 105 105 104
87 93 91 87 87 98 104 110 113 118 123 124 129 133 136 137 140 145 148 152 126 116 114 110 102 101 99
96 85 77 87 98 104 112 111 119 121 131 134 134 137 135 141 145 146 148 131 115 114 109 109 103 99 98
80 85 92 96 105 111 115 121 124 131 134 136 136 140 141 134 137 150 136 114 113 106 104 104 104 99 100
88 94 101 109 115 121 125 129 131 136 139 142 141 144 140 142 144 147 118 114 107 106 103 101 102 102 101
104 107 113 117 123 127 130 136 137 137 136 141 136 132 138 140 148 122 114 108 106 101 100 102 103 101 99
Wind_Direction
292 291 291 294 297 298 298 299 303 312 314 315 316 321 323 325 326 325 325 327 328 329 328 328 329 328 325
291 289 292 293 298 298 295 299 304 308 311 312 317 318 322 326 327 326 325 325 327 329 328 328 328 327 324
291 291 295 294 297 298 297 299 303 308 310 312 314 317 324 324 325 325 323 324 326 327 327 326 326 325 325
288 290 293 297 299 297 300 300 302 308 310 311 313 322 323 324 324 323 322 324 327 327 326 326 326 326 325
286 286 291 301 298 300 303 301 305 309 310 311 320 321 323 323 322 322 321 324 325 326 326 325 327 326 325
285 290 291 295 300 302 300 304 305 308 311 317 318 321 321 321 320 320 321 322 326 325 326 327 327 326 326
291 293 292 296 298 298 301 305 306 312 317 317 318 318 320 319 320 322 321 323 324 325 326 326 326 326 326
291 296 294 296 295 299 301 305 311 314 313 315 318 318 318 320 319 320 321 324 324 323 328 327 326 326 325
292 294 295 296 297 299 303 311 313 309 307 314 316 316 318 319 318 320 321 322 325 326 326 326 326 325 325
295 291 292 294 297 304 310 308 306 306 308 312 314 316 318 319 319 319 321 325 326 327 326 325 326 326 326
288 293 293 295 301 307 307 307 306 307 309 312 314 316 317 318 319 320 323 325 328 326 324 325 326 327 327
291 293 295 301 306 303 303 304 307 308 311 312 315 316 318 318 319 322 323 327 326 324 323 324 327 327 326
290 294 299 303 296 301 303 307 310 310 313 311 316 318 319 320 321 322 324 325 325 323 323 324 326 326 326
291 301 292 292 299 301 307 308 308 311 312 316 316 319 317 321 321 324 323 323 321 322 322 322 324 326 327
295 290 295 297 301 304 305 308 309 312 314 317 315 317 319 321 321 322 323 321 321 321 322 322 324 327 328
289 291 297 300 302 302 304 306 308 311 314 314 315 317 320 320 321 322 320 319 320 322 322 324 325 327 328
290 293 295 298 298 300 303 306 309 312 311 315 318 315 319 319 320 320 318 319 321 321 323 324 325 326 328